{"data":{"norad_id":55379,"epoch":"2026-09-20T13:20:56.880960Z","epoch_age_seconds":91810,"freshness":"FRESH","line1":"1 55379U 23013BA  26263.55621390  .00000038  00000+0  10931-4 0  9996","line2":"2 55379  43.0054 297.7661 0002380 295.9491  64.1115 15.27577893201305","mean_motion":15.27577893,"eccentricity":0.000238,"inclination_deg":43.0054,"raan_deg":297.7661,"arg_perigee_deg":295.9491,"mean_anomaly_deg":64.1115,"bstar":1.0931e-5,"rev_number":20130,"period_min":94.266878736507,"perigee_km":481.42244137047,"apogee_km":484.68836895532,"semimajor_km":6861.1924051629,"source":"CELESTRAK","updated_at":"2026-09-21T09:00:33.211383Z"}}